Hourly Weather Bolshie Moshki

Today, 31 July, Saturday

Time Temperature Precipitation Wind Pressure Humidity
00:00 +16°C° 0 mm 2 mps 729 mmHg 82%
01:00 +16°C° 0 mm 2 mps 729 mmHg 81%
02:00 +15°C° 0 mm 2 mps 729 mmHg 81%
03:00 +14°C° 0 mm 3 mps 729 mmHg 81%
04:00 +14°C° 0 mm 3 mps 729 mmHg 81%
05:00 +14°C° 0 mm 3 mps 729 mmHg 82%
06:00 +17°C° 0 mm 4 mps 729 mmHg 73%
07:00 +17°C° 0 mm 5 mps 729 mmHg 64%
08:00 +20°C° 0 mm 5 mps 729 mmHg 54%
09:00 +21°C° 0 mm 6 mps 729 mmHg 53%
10:00 +22°C° 0 mm 6 mps 730 mmHg 51%
11:00 +22°C° 0 mm 6 mps 730 mmHg 49%
12:00 +22°C° 0.1 mm 5 mps 730 mmHg 52%
13:00 +22°C° 0.1 mm 5 mps 730 mmHg 55%
14:00 +22°C° 0.1 mm 4 mps 731 mmHg 58%
15:00 +22°C° 0 mm 4 mps 731 mmHg 57%
16:00 +22°C° 0 mm 4 mps 731 mmHg 56%
17:00 +23°C° 0 mm 4 mps 731 mmHg 56%
18:00 +21°C° 0 mm 3 mps 732 mmHg 61%
19:00 +20°C° 0 mm 3 mps 732 mmHg 67%
20:00 +18°C° 0 mm 2 mps 732 mmHg 73%
21:00 +17°C° 0 mm 2 mps 732 mmHg 77%
22:00 +16°C° 0 mm 2 mps 732 mmHg 81%
23:00 +15°C° 0 mm 2 mps 732 mmHg 85%

Tomorrow, 1 August, Sunday

Time Temperature Precipitation Wind Pressure Humidity
00:00 +15°C° 0 mm 2 mps 733 mmHg 85%
01:00 +15°C° 0 mm 2 mps 733 mmHg 85%
02:00 +15°C° 0 mm 2 mps 733 mmHg 85%
03:00 +15°C° 0 mm 2 mps 733 mmHg 84%
04:00 +15°C° 0 mm 2 mps 733 mmHg 82%
05:00 +15°C° 0 mm 2 mps 733 mmHg 81%
06:00 +16°C° 0.3 mm 2 mps 733 mmHg 83%
07:00 +16°C° 0.3 mm 2 mps 733 mmHg 85%
08:00 +17°C° 0.3 mm 3 mps 733 mmHg 87%
09:00 +17°C° 0.3 mm 3 mps 733 mmHg 88%
10:00 +18°C° 0.3 mm 3 mps 733 mmHg 89%
11:00 +19°C° 0.3 mm 3 mps 733 mmHg 90%
12:00 +19°C° 0.3 mm 3 mps 733 mmHg 88%
13:00 +20°C° 0.3 mm 3 mps 733 mmHg 86%
14:00 +21°C° 0.3 mm 3 mps 732 mmHg 84%
15:00 +22°C° 0.3 mm 3 mps 732 mmHg 80%
16:00 +24°C° 0.3 mm 3 mps 732 mmHg 75%
17:00 +25°C° 0.3 mm 3 mps 732 mmHg 71%
18:00 +22°C° 0 mm 3 mps 732 mmHg 70%
19:00 +21°C° 0 mm 3 mps 732 mmHg 70%
20:00 +20°C° 0 mm 2 mps 732 mmHg 69%
21:00 +19°C° 0 mm 2 mps 733 mmHg 71%
22:00 +18°C° 0 mm 2 mps 733 mmHg 72%
23:00 +17°C° 0 mm 2 mps 733 mmHg 73%

Day after tomorrow, 2 August, Monday

Time Temperature Precipitation Wind Pressure Humidity
00:00 +18°C° 0 mm 1 mps 733 mmHg 73%
01:00 +18°C° 0 mm 1 mps 733 mmHg 73%
02:00 +18°C° 0 mm 1 mps 733 mmHg 73%
03:00 +18°C° 0 mm 1 mps 733 mmHg 74%
04:00 +18°C° 0 mm 1 mps 733 mmHg 74%
05:00 +18°C° 0 mm 1 mps 733 mmHg 74%
06:00 +20°C° 0 mm 1 mps 732 mmHg 68%
07:00 +21°C° 0 mm 1 mps 732 mmHg 62%
08:00 +23°C° 0 mm 2 mps 732 mmHg 56%
09:00 +24°C° 0 mm 2 mps 732 mmHg 54%
10:00 +25°C° 0 mm 2 mps 731 mmHg 52%
11:00 +26°C° 0 mm 3 mps 730 mmHg 50%
12:00 +25°C° 0.5 mm 3 mps 730 mmHg 62%
13:00 +23°C° 0.5 mm 4 mps 729 mmHg 74%
14:00 +22°C° 0.5 mm 4 mps 729 mmHg 86%
15:00 +22°C° 1.8 mm 5 mps 728 mmHg 87%
16:00 +22°C° 1.8 mm 5 mps 728 mmHg 87%
17:00 +21°C° 1.8 mm 5 mps 727 mmHg 88%
18:00 +20°C° 2 mm 4 mps 727 mmHg 91%
19:00 +19°C° 2 mm 3 mps 726 mmHg 94%
20:00 +17°C° 2 mm 3 mps 726 mmHg 97%
21:00 +17°C° 0.6 mm 3 mps 727 mmHg 97%
22:00 +15°C° 0.6 mm 4 mps 727 mmHg 97%
23:00 +15°C° 0.6 mm 4 mps 728 mmHg 97%

3 August, Tuesday

Time Temperature Precipitation Wind Pressure Humidity
00:00 +14°C° 0.1 mm 4 mps 728 mmHg 97%
01:00 +14°C° 0.1 mm 4 mps 729 mmHg 97%
02:00 +14°C° 0.1 mm 4 mps 729 mmHg 97%
03:00 +14°C° 0 mm 3 mps 730 mmHg 96%
04:00 +14°C° 0 mm 3 mps 730 mmHg 95%
05:00 +14°C° 0 mm 3 mps 731 mmHg 95%
06:00 +14°C° 0 mm 3 mps 731 mmHg 90%
07:00 +16°C° 0 mm 3 mps 731 mmHg 86%
08:00 +17°C° 0 mm 3 mps 732 mmHg 81%
09:00 +18°C° 0.1 mm 3 mps 732 mmHg 72%
10:00 +20°C° 0.1 mm 4 mps 732 mmHg 63%
11:00 +21°C° 0.1 mm 4 mps 732 mmHg 54%
12:00 +21°C° 0 mm 4 mps 732 mmHg 50%
13:00 +22°C° 0 mm 4 mps 732 mmHg 47%
14:00 +22°C° 0 mm 4 mps 733 mmHg 44%
15:00 +21°C° 0 mm 4 mps 733 mmHg 48%
16:00 +21°C° 0 mm 4 mps 733 mmHg 53%
17:00 +20°C° 0 mm 3 mps 733 mmHg 58%
18:00 +18°C° 0 mm 3 mps 733 mmHg 68%
19:00 +17°C° 0 mm 2 mps 734 mmHg 78%
20:00 +15°C° 0 mm 2 mps 734 mmHg 88%
21:00 +14°C° 0 mm 2 mps 734 mmHg 91%
22:00 +14°C° 0 mm 1 mps 734 mmHg 94%
23:00 +13°C° 0 mm 1 mps 735 mmHg 97%

4 August, Wednesday

Time Temperature Precipitation Wind Pressure Humidity
00:00 +13°C° 0 mm 1 mps 735 mmHg 97%
01:00 +12°C° 0 mm 1 mps 735 mmHg 97%
02:00 +12°C° 0 mm 1 mps 736 mmHg 97%
03:00 +12°C° 0 mm 1 mps 736 mmHg 97%
04:00 +12°C° 0 mm 1 mps 736 mmHg 96%
05:00 +12°C° 0 mm 1 mps 737 mmHg 95%
06:00 +14°C° 0 mm 1 mps 737 mmHg 83%
07:00 +16°C° 0 mm 1 mps 737 mmHg 71%
08:00 +19°C° 0 mm 1 mps 738 mmHg 59%
09:00 +19°C° 0 mm 2 mps 738 mmHg 52%
10:00 +20°C° 0 mm 2 mps 738 mmHg 46%
11:00 +21°C° 0 mm 2 mps 738 mmHg 39%
12:00 +23°C° 0 mm 2 mps 738 mmHg 38%
13:00 +23°C° 0 mm 2 mps 738 mmHg 36%
14:00 +24°C° 0 mm 2 mps 738 mmHg 34%
15:00 +23°C° 0 mm 2 mps 738 mmHg 38%
16:00 +23°C° 0 mm 2 mps 738 mmHg 41%
17:00 +23°C° 0 mm 2 mps 738 mmHg 45%
18:00 +19°C° 0 mm 2 mps 739 mmHg 52%
19:00 +17°C° 0 mm 2 mps 739 mmHg 60%
20:00 +15°C° 0 mm 2 mps 739 mmHg 67%
21:00 +14°C° 0 mm 2 mps 739 mmHg 69%
22:00 +13°C° 0 mm 2 mps 740 mmHg 71%
23:00 +12°C° 0 mm 2 mps 740 mmHg 72%

5 August, Thursday

Time Temperature Precipitation Wind Pressure Humidity
00:00 +12°C° 0 mm 2 mps 740 mmHg 75%
01:00 +12°C° 0 mm 2 mps 740 mmHg 77%
02:00 +10°C° 0 mm 2 mps 740 mmHg 79%
03:00 +12°C° 0 mm 2 mps 740 mmHg 78%
04:00 +12°C° 0 mm 2 mps 740 mmHg 78%
05:00 +12°C° 0 mm 2 mps 740 mmHg 77%
06:00 +14°C° 0 mm 2 mps 740 mmHg 72%
07:00 +16°C° 0 mm 2 mps 739 mmHg 67%
08:00 +18°C° 0 mm 3 mps 739 mmHg 62%
09:00 +18°C° 0.3 mm 3 mps 739 mmHg 68%
10:00 +18°C° 0.3 mm 2 mps 739 mmHg 75%
11:00 +18°C° 0.3 mm 2 mps 740 mmHg 81%
12:00 +17°C° 0.1 mm 2 mps 739 mmHg 85%
13:00 +17°C° 0.1 mm 2 mps 739 mmHg 88%
14:00 +16°C° 0.1 mm 2 mps 739 mmHg 91%
15:00 +17°C° 0 mm 3 mps 739 mmHg 87%
16:00 +18°C° 0 mm 3 mps 738 mmHg 82%
17:00 +19°C° 0 mm 3 mps 738 mmHg 78%
18:00 +18°C° 0 mm 3 mps 738 mmHg 81%
19:00 +17°C° 0 mm 3 mps 738 mmHg 84%
20:00 +16°C° 0 mm 3 mps 738 mmHg 88%
21:00 +16°C° 0.1 mm 3 mps 737 mmHg 89%
22:00 +16°C° 0.1 mm 3 mps 737 mmHg 90%
23:00 +16°C° 0.1 mm 3 mps 737 mmHg 92%
Show more

We Need Your Consent

Meteoprog and our Service Providers may store and access personal data such as cookies, device identifiers or other similar technologies on your device and process such data to personalise content and ads, as well as provide social media features and to analyse the traffic.

  • Store and/or access information on your device

    Cookies, device identifiers or other information can be stored or accessed on your device for the purposes indicated above.

  • Personalised ads and content, ad and content measurement, audience insights, and products development

    Ads and content can be personalised based on a profile. More data can be added to better personalise ads and content. Ad and content performance can be measured. Insights about the audience who saw the ads and content can be derived. Such data can be used to develop or improve user’s experience, systems and software.

By clicking ‘I Agree’ you will allow the use of indicated cookies, device identifiers, web beacons or other similar technologies. Your settings can be changed in the browser on your device.

For certain purposes, legitimate interests may be relied on, rather than consent. You can read more about this in our Privacy and Cookie Policy.